Preview of NWS' New Version of Forecast
This preview is not operational and should not be used for support decisions.

Regional Weather Roundup (RWR)

Issued by Philadelphia/Mt Holly (PHI)

                            
000
ASUS41 KPHI 242012
RWRPHI

REGIONAL WEATHER ROUNDUP
NATIONAL WEATHER SERVICE MOUNT HOLLY NJ
400 PM EDT FRI MAY 24 2019

NOTE:  "FAIR" INDICATES FEW OR NO CLOUDS BELOW 12,000 FEET WITH NO
SIGNIFICANT WEATHER AND/OR OBSTRUCTIONS TO VISIBILITY.

 * = STATION DOES NOT REPORT PRECIPITATION (E.G. RAIN, SNOW, ETC.) 
        OR FOG.

NJZ015>026-242100-
SOUTHERN NEW JERSEY
  
CITY           SKY/WX    TMP DP  RH WIND       PRES   REMARKS
POMONA         FAIR      81  53  37 NW22G32   29.95S                  
WILDWOOD*      FAIR      80  55  42 NW13G26   29.99S                  
MILLVILLE      FAIR      80  51  36 NW18G26   29.97S                  
WRIGHTSTOWN    FAIR      79  52  38 N16G25    29.93S                  
MOUNT HOLLY    FAIR      79  53  40 NW13G24   29.96S                  
TRENTON        FAIR      77  52  41 N20G29    29.96S                  

$$
NJZ001>014-242100-
NORTHERN NEW JERSEY
  
CITY           SKY/WX    TMP DP  RH WIND       PRES   REMARKS
SUSSEX         CLOUDY    68  52  56 N8G18     30.03R                  
ANDOVER*         N/A     71  52  50 N8        30.01R                  
MORRISTOWN     MOSUNNY   73  55  53 N16G26    29.98R                  
NEWARK         PTSUNNY   75  49  39 NW23G33   29.96R                  
TETERBORO      PTSUNNY   73  52  47 N13G25    29.95R                  
CALDWELL       FAIR      74  51  44 NW13G28   29.98R                  
SOMERVILLE     FAIR      76  49  38 N20G28    29.96R                  
ALLAIRE*       FAIR      76  51  41 NW20G33   29.95S                  
TOMS RIVER*    FAIR      78  52  40 NW21G31   29.95R                  

$$
PAZ043-044-047-054-055-060>062-066>071-242100-
EASTERN PENNSYLVANIA
  
CITY           SKY/WX    TMP DP  RH WIND       PRES   REMARKS
PHILADELPHIA   FAIR      81  49  32 NW20G30   29.97S                  
NORTH PHILA    FAIR      81  51  35 N14G23    29.98S                  
BLUE BELL*     FAIR      78  52  40 NW10      29.98F                  
DOYLESTOWN     FAIR      79  52  38 N13G22    29.97S                  
QUAKERTOWN*    MOSUNNY   77  54  44 VRB8G17   30.00                   
PERKASIE*      FAIR      77  50  38 N13G22    30.00S                  
POTTSTOWN      FAIR      77  51  40 NW12G21   30.00S                  
LANCASTER      FAIR      81  53  37 NW17G23   30.00S                  
COATESVILLE    FAIR      77  50  38 NW17      30.02S                  
WEST CHESTER   FAIR      79  46  31 NW12G20   30.00S                  
READING        FAIR      79  52  38 N17G26    29.99S                  
ALLENTOWN      FAIR      80  52  37 N20       29.99S                  
QN CITY/ALNTWN FAIR      77  54  44 NW10G18   30.01R                  
MOUNT POCONO   FAIR      65  50  58 NW20G28   30.05R                  
HAZLETON       FAIR      72  46  40 W12G23    30.07S                  
LEHIGHTON      MOCLDY    75  50  41 N9        30.01R                  
WILKES BARRE   FAIR      71  52  50 N14G24    30.05R                  

$$
DEZALL-MDZ008-012-015-019-020-242100-
DELAWARE AND EASTERN MARYLAND
  
CITY           SKY/WX    TMP DP  RH WIND       PRES   REMARKS
WILMINGTON     FAIR      82  52  35 NW15G24   29.99S                  
CHESWOLD         N/A     79  50  36 NW14G23   29.99S                  
GEORGETOWN     FAIR      81  50  33 W14G23    30.00R                  
EASTON         SUNNY     82  50  32 NW16G22   30.04F                  
STEVENSVILLE   FAIR      79  57  47 N9        30.01S                  
ABERDEEN       MOSUNNY   81  52  36 W16       30.01S                  
PATUXENT       FAIR      85  55  35 NW14      30.00F                  
OCEAN CITY     FAIR      81  52  36 NW13G28   29.98                   
WALLOPS ISLAND FAIR      83  53  35 NW20G30   29.98S                  
CAMBRIDGE      SUNNY     81  54  39 NW15G21   30.01S                  
SALISBURY      FAIR      82  52  35 NW22G32   29.99S                  

$$
PAZ001-021-NYZ056-072-MDZ011-DCZ001-242100-
OTHER NEARBY LOCATIONS
  
CITY           SKY/WX    TMP DP  RH WIND       PRES   REMARKS
HARRISBURG     FAIR      81  51  35 NW13G23   30.00F                  
STATE COLLEGE  SUNNY     73  48  40 NW12G20   30.07S                  
WILLIAMSPORT   FAIR      80  44  27 NW14G24   30.01R                  
BINGHAMTON     PTSUNNY   62  49  62 NW18G24   30.09R                  
NEW YORK CITY  PTSUNNY   72  50  45 W10G22    29.98R                  
BALTIMORE      FAIR      83  52  34 NW13G22   30.00F                  
WASHINGTON DC  FAIR      83  53  35 NW15G24   30.02F                  

$$